P/2006 U1 ( LINEAR )

Japanese version
Home page
Total 6,336 html files since Dec. 4, 1995
Updated on February 4, 2007

---------------------------------------------------------------------

* Profile

Discovery Date October 19, 2006
Magnitude 17.3 mag
Discoverer Lincoln Laboratory Near-Earth Asteroid Research project

* Pictures

* Orbital Elements

T 2006 Aug. 28.5333 TT                                  MPC
q   0.510634             (2000.0)            P               Q
n   0.2130415      Peri.   64.0426      +0.5606363      +0.8181374
a   2.776472       Node   240.6456      -0.8024880      +0.4987427
e   0.816085       Incl.    8.4329      -0.2042058      +0.2861940
P   4.63
From 345 observations 2006 Oct. 19-Dec. 26.

* Finding Charts

* Magnitudes Graph

        H = 16.0  G = 0.15

---------------------------------------------------------------------

The orbital elements are published on M.P.E.C. 2006-Y58.
The charts are made with StellaNavigator Ver.2.0 for Windows (AstroArts / ASCII).
The magnitudes graphs are made with Comet for Windows.

---------------------------------------------------------------------

Copyright(C) 1995-2008 Seiichi Yoshida (comet@aerith.net). All rights reserved.